Погода в Идрице

Россия / Псковская область     56°19′55″N   28°53′13″E
темп.,
°C
ветер,
м/с
пор.,
м/с
влажн.,
%
обл.,
%
осадки,
мм/ч
давл.,
гПа
погр.,
м
7 марта, вс
вс700:00−1зюз71562100 0.0 10071192
03:00−1зюз81688100 0.1 10021239
06:000зюз81694100 0.9 9981302
09:00−3зсз3972100 2.8 9971311
12:00−3юз5786100 0.3 996666
15:00−1зсз8155299 1.8 9972377
18:00−3зсз51359100 0.1 9981780
21:00−5з51373100 0.1 9991106
8 марта, пн
пн800:00−5зсз5109099 0.3 1000887
03:00−5сз498999 0.8 1001821
06:00−8ссз4118267 0.1 1003551
09:00−7сз598667 0.2 1006957
12:00−7ссз5875100 0.2 1008902
15:00−6ссз5871100 0.2 1011950
18:00−7ссз4878100 0.0 1012847
21:00−9ссз3108780 0.0 1015372
9 марта, вт
вт900:00−11ссз27950 0.0 1017246
03:00−12сз259727 0.0 1018169
06:00−13сз249774 0.0 1019143
09:00−12ссз248854 0.0 1020254
12:00−7сз246549 0.0 1020732
15:00−5зсз235972 0.0 1021990
18:00−5зюз1471100 0.0 1019796
21:00−6ююз3878100 0.1 1020308
10 марта, ср
ср1000:00−6юз3977100 0.0 1019413
03:00−5юз41075100 0.0 1018420
06:00−6зюз3994100 0.4 1017525
09:00−5зюз4893100 1.9 1018541
12:00−2юз2487100 0.5 1019474
15:00−1юз2493100 2.1 1019373
18:00−2юз3695100 2.0 1018446
21:00−4ююз389793 2.6 1019283
11 марта, чт
чт1100:00−3юз3995100 0.6 1018523
03:00−4юз3795100 1.1 1018346
06:00−4юз249799 0.2 1017183
09:00−4ююз379297 0.4 1016362
12:00−1ююз487426 0.0 1015790
15:00+2ю5106243 0.0 10121365
18:000ю61266100 0.0 10081067
21:00−2ююв61394100 1.3 1001914